| time (UTC) | temp F | wind direction | speed knots | gust knots | rain 1hr in | rain 24hr in | rain mn in | humidity % | barometer mb |
| 20260510093448 | 54 | 6 | 8.7 | 18.2 | 0.00 | 0.00 | 0.00 | 82 | 1015.8 |
| 20260510092947 | 54 | 62 | 8.7 | 19.1 | 0.00 | 0.00 | 0.00 | 82 | 1015.8 |
| 20260510091944 | 54 | 97 | 8.7 | 15.6 | 0.00 | 0.00 | 0.00 | 82 | 1015.9 |
| 20260510091445 | 54 | 28 | 8.7 | 16.5 | 0.00 | 0.00 | 0.00 | 82 | 1015.9 |
| 20260510090945 | 53 | 58 | 8.7 | 20.0 | 0.00 | 0.00 | 0.00 | 82 | 1015.9 |
| 20260510090444 | 53 | 75 | 8.7 | 20.0 | 0.00 | 0.00 | 0.00 | 83 | 1015.9 |
| 20260510085940 | 53 | 69 | 8.7 | 17.4 | 0.00 | 0.00 | 0.00 | 83 | 1015.9 |
| 20260510085440 | 53 | 68 | 9.6 | 16.5 | 0.00 | 0.00 | 0.00 | 84 | 1015.9 |
| 20260510084940 | 53 | 35 | 9.6 | 16.5 | 0.00 | 0.00 | 0.00 | 83 | 1015.9 |
| 20260510083942 | 53 | 96 | 9.6 | 15.6 | 0.00 | 0.00 | 0.00 | 84 | 1015.8 |
| 20260510083442 | 53 | 50 | 9.6 | 15.6 | 0.00 | 0.00 | 0.00 | 84 | 1015.7 |
| 20260510082941 | 53 | 53 | 8.7 | 14.8 | 0.00 | 0.00 | 0.00 | 85 | 1015.7 |
| 20260510082436 | 53 | 336 | 7.8 | 15.6 | 0.00 | 0.00 | 0.00 | 86 | 1015.7 |
| 20260510081935 | 53 | 55 | 7.0 | 15.6 | 0.00 | 0.00 | 0.00 | 86 | 1015.8 |
| 20260510081434 | 53 | 58 | 7.8 | 16.5 | 0.00 | 0.00 | 0.00 | 86 | 1015.8 |
| 20260510080934 | 53 | 55 | 8.7 | 16.5 | 0.00 | 0.00 | 0.00 | 86 | 1015.8 |
| 20260510080435 | 53 | 43 | 8.7 | 16.5 | 0.00 | 0.00 | 0.00 | 86 | 1015.8 |
| 20260510075936 | 53 | 23 | 7.8 | 15.6 | 0.00 | 0.00 | 0.00 | 86 | 1015.9 |
| 20260510075435 | 53 | 56 | 7.8 | 15.6 | 0.00 | 0.00 | 0.00 | 87 | 1015.9 |
| 20260510074929 | 53 | 56 | 8.7 | 16.5 | 0.00 | 0.00 | 0.00 | 87 | 1015.9 |
| 20260510074428 | 53 | 53 | 8.7 | 16.5 | 0.00 | 0.00 | 0.00 | 87 | 1015.9 |
| 20260510073928 | 53 | 75 | 7.8 | 15.6 | 0.00 | 0.00 | 0.00 | 87 | 1015.9 |
| 20260510073428 | 53 | 55 | 7.8 | 13.9 | 0.00 | 0.00 | 0.00 | 87 | 1015.9 |
| 20260510072928 | 53 | 71 | 7.0 | 13.9 | 0.00 | 0.00 | 0.00 | 87 | 1015.9 |
| 20260510072428 | 53 | 76 | 7.0 | 14.8 | 0.00 | 0.00 | 0.00 | 88 | 1015.9 |
| 20260510071929 | 53 | 64 | 7.8 | 14.8 | 0.00 | 0.00 | 0.00 | 88 | 1015.9 |
| 20260510071426 | 53 | 43 | 7.8 | 14.8 | 0.00 | 0.00 | 0.00 | 87 | 1016.0 |
| 20260510070437 | 53 | 84 | 7.8 | 13.9 | 0.00 | 0.00 | 0.00 | 87 | 1016.0 |
| 20260510065927 | 53 | 57 | 7.0 | 13.0 | 0.00 | 0.00 | 0.00 | 87 | 1016.0 |
| 20260510065426 | 53 | 51 | 7.0 | 13.0 | 0.00 | 0.00 | 0.00 | 87 | 1016.0 |
| 20260510064926 | 53 | 41 | 8.7 | 14.8 | 0.00 | 0.00 | 0.00 | 88 | 1016.0 |
| 20260510064426 | 52 | 69 | 8.7 | 14.8 | 0.00 | 0.00 | 0.00 | 87 | 1016.0 |
| 20260510063927 | 53 | 69 | 8.7 | 14.8 | 0.00 | 0.00 | 0.00 | 87 | 1016.0 |
| 20260510063421 | 53 | 13 | 7.8 | 14.8 | 0.00 | 0.00 | 0.00 | 86 | 1015.9 |
| 20260510062920 | 53 | 1 | 7.8 | 14.8 | 0.00 | 0.00 | 0.00 | 87 | 1015.9 |
| 20260510061921 | 52 | 32 | 8.7 | 16.5 | 0.00 | 0.00 | 0.00 | 87 | 1015.9 |
| 20260510061421 | 52 | 40 | 10.4 | 19.1 | 0.00 | 0.00 | 0.00 | 87 | 1015.9 |
| 20260510060921 | 52 | 57 | 10.4 | 19.1 | 0.00 | 0.00 | 0.00 | 87 | 1015.9 |
| 20260510060415 | 52 | 66 | 9.6 | 17.4 | 0.00 | 0.00 | 0.00 | 87 | 1015.8 |
| 20260510055915 | 52 | 44 | 8.7 | 17.4 | 0.00 | 0.00 | 0.00 | 89 | 1015.8 |
| 20260510055416 | 52 | 56 | 8.7 | 17.4 | 0.00 | 0.00 | 0.00 | 88 | 1015.8 |
| 20260510054916 | 52 | 48 | 8.7 | 5.2 | 0.00 | 0.00 | 0.00 | 89 | 1015.9 |
| 20260510053401 | 51 | 60 | 7.0 | 13.0 | 0.00 | 0.00 | 0.00 | 89 | 1016.0 |
| 20260510052901 | 51 | 60 | 7.0 | 13.0 | 0.00 | 0.00 | 0.00 | 89 | 1016.0 |
| 20260510052401 | 51 | 88 | 7.0 | 13.0 | 0.00 | 0.00 | 0.00 | 90 | 1016.1 |
| 20260510051901 | 51 | 56 | 7.8 | 14.8 | 0.00 | 0.00 | 0.00 | 90 | 1016.0 |
| 20260510050855 | 51 | 10 | 7.8 | 15.6 | 0.00 | 0.00 | 0.00 | 90 | 1016.0 |
| 20260510050355 | 51 | 48 | 7.8 | 15.6 | 0.00 | 0.00 | 0.00 | 90 | 1016.0 |
| 20260510045855 | 51 | 62 | 7.8 | 14.8 | 0.00 | 0.00 | 0.00 | 90 | 1016.0 |
| 20260510044855 | 52 | 66 | 7.0 | 14.8 | 0.00 | 0.00 | 0.00 | 90 | 1016.0 |
| 20260510043850 | 52 | 37 | 7.0 | 13.0 | 0.00 | 0.00 | 0.00 | 90 | 1016.0 |
| 20260510043351 | 52 | 75 | 7.0 | 13.0 | 0.00 | 0.00 | 0.00 | 90 | 1015.9 |
| 20260510042851 | 52 | 65 | 6.1 | 13.0 | 0.00 | 0.00 | 0.00 | 90 | 1015.9 |
| 20260510041852 | 52 | 23 | 7.0 | 14.8 | 0.00 | 0.00 | 0.00 | 90 | 1015.9 |
| 20260510040845 | 52 | 53 | 7.0 | 12.2 | 0.00 | 0.00 | 0.00 | 90 | 1015.8 |
| 20260510035845 | 52 | 18 | 7.0 | 15.6 | 0.00 | 0.00 | 0.00 | 90 | 1015.9 |
| 20260510034345 | 52 | 1 | 7.0 | 17.4 | 0.00 | 0.00 | 0.00 | 90 | 1015.8 |
| 20260510033839 | 52 | 46 | 6.1 | 17.4 | 0.00 | 0.00 | 0.00 | 91 | 1015.8 |
| 20260510033339 | 52 | 44 | 7.0 | 15.6 | 0.00 | 0.00 | 0.00 | 90 | 1015.8 |
| 20260510032839 | 52 | 62 | 6.1 | 15.6 | 0.00 | 0.00 | 0.00 | 91 | 1015.9 |
| 20260510032339 | 53 | 65 | 5.2 | 5.2 | 0.00 | 0.00 | 0.00 | 90 | 1015.9 |
| 20260510030849 | 53 | 70 | 6.1 | 12.2 | 0.00 | 0.00 | 0.00 | 90 | 1015.8 |
| 20260510030402 | 53 | 108 | 6.1 | 12.2 | 0.00 | 0.00 | 0.00 | 90 | 1015.8 |
| 20260510025849 | 53 | 44 | 5.2 | 11.3 | 0.00 | 0.00 | 0.00 | 90 | 1015.8 |
| 20260510025349 | 53 | 98 | 6.1 | 12.2 | 0.00 | 0.00 | 0.00 | 90 | 1015.8 |
| 20260510024846 | 53 | 77 | 5.2 | 12.2 | 0.00 | 0.00 | 0.00 | 90 | 1015.8 |
| 20260510024345 | 53 | 77 | 5.2 | 10.4 | 0.00 | 0.00 | 0.00 | 90 | 1015.8 |
| 20260510023846 | 53 | 79 | 5.2 | 10.4 | 0.00 | 0.00 | 0.00 | 90 | 1015.9 |
| 20260510023345 | 53 | 64 | 5.2 | 10.4 | 0.00 | 0.00 | 0.00 | 90 | 1015.9 |
| 20260510022846 | 53 | 60 | 5.2 | 10.4 | 0.00 | 0.00 | 0.00 | 90 | 1015.9 |
| 20260510022345 | 53 | 45 | 6.1 | 10.4 | 0.00 | 0.00 | 0.00 | 90 | 1015.9 |
| 20260510021847 | 53 | 354 | 5.2 | 10.4 | 0.00 | 0.00 | 0.00 | 90 | 1015.9 |
| 20260510020342 | 53 | 49 | 4.3 | 8.7 | 0.00 | 0.00 | 0.00 | 90 | 1015.9 |
| 20260510014342 | 54 | 69 | 3.5 | 8.7 | 0.00 | 0.00 | 0.00 | 88 | 1016.0 |
| 20260510013843 | 54 | 76 | 3.5 | 9.6 | 0.00 | 0.00 | 0.00 | 87 | 1016.1 |
| 20260510012843 | 54 | 77 | 5.2 | 11.3 | 0.00 | 0.00 | 0.00 | 83 | 1016.2 |
| 20260510012342 | 54 | 63 | 5.2 | 11.3 | 0.00 | 0.00 | 0.00 | 83 | 1016.2 |
| 20260510011342 | 54 | 40 | 6.1 | 10.4 | 0.00 | 0.00 | 0.00 | 83 | 1016.1 |
| 20260510010844 | 54 | 65 | 5.2 | 11.3 | 0.00 | 0.00 | 0.00 | 83 | 1016.1 |
| 20260510010341 | 54 | 53 | 4.3 | 11.3 | 0.00 | 0.00 | 0.00 | 83 | 1016.1 |
| 20260510005841 | 54 | 65 | 5.2 | 7.0 | 0.00 | 0.00 | 0.00 | 83 | 1016.2 |
| 20260510004531 | 53 | 56 | 5.2 | 9.6 | 0.00 | 0.00 | 0.00 | 83 | 1015.9 |
| 20260510004025 | 54 | 46 | 4.3 | 9.6 | 0.00 | 0.00 | 0.00 | 83 | 1016.0 |
| 20260510003527 | 54 | 37 | 3.5 | 7.8 | 0.00 | 0.00 | 0.00 | 82 | 1016.2 |
| 20260510002526 | 54 | 54 | 5.2 | 10.4 | 0.00 | 0.00 | 0.00 | 81 | 1016.2 |
| 20260510001527 | 54 | 47 | 4.3 | 8.7 | 0.00 | 0.00 | 0.00 | 81 | 1016.1 |
| 20260510001022 | 54 | 51 | 4.3 | 9.6 | 0.00 | 0.00 | 0.00 | 80 | 1016.2 |
| 20260510000523 | 54 | 79 | 3.5 | 9.6 | 0.00 | 0.00 | 0.00 | 80 | 1016.3 |
| 20260509235022 | 54 | 21 | 4.3 | 8.7 | 0.00 | 0.00 | 0.00 | 80 | 1016.4 |
| 20260509234523 | 54 | 45 | 4.3 | 8.7 | 0.00 | 0.00 | 0.00 | 80 | 1016.4 |
| 20260509234017 | 54 | 79 | 4.3 | 9.6 | 0.00 | 0.00 | 0.00 | 79 | 1016.4 |
| 20260509233519 | 54 | 55 | 4.3 | 10.4 | 0.00 | 0.00 | 0.00 | 80 | 1016.5 |
| 20260509233017 | 54 | 65 | 3.5 | 10.4 | 0.00 | 0.00 | 0.00 | 80 | 1016.5 |
| 20260509232518 | 54 | 41 | 3.5 | 11.3 | 0.00 | 0.00 | 0.00 | 80 | 1016.6 |
| 20260509232018 | 54 | 36 | 4.3 | 11.3 | 0.00 | 0.00 | 0.00 | 80 | 1016.6 |
| 20260509231519 | 54 | 51 | 4.3 | 7.8 | 0.00 | 0.00 | 0.00 | 80 | 1016.6 |
| 20260509231018 | 54 | 60 | 4.3 | 8.7 | 0.00 | 0.00 | 0.00 | 80 | 1016.7 |
| 20260509230512 | 54 | 83 | 4.3 | 10.4 | 0.00 | 0.00 | 0.00 | 80 | 1016.6 |
| 20260509230010 | 54 | 34 | 5.2 | 10.4 | 0.00 | 0.00 | 0.00 | 80 | 1016.6 |
| 20260509225510 | 54 | 55 | 4.3 | 8.7 | 0.00 | 0.00 | 0.00 | 80 | 1016.6 |
| 20260509225006 | 54 | 45 | 4.3 | 8.7 | 0.00 | 0.00 | 0.00 | 80 | 1016.5 |
| 20260509224507 | 54 | 56 | 4.3 | 8.7 | 0.00 | 0.00 | 0.00 | 81 | 1016.5 |
| 20260509223506 | 54 | 32 | 3.5 | 7.8 | 0.00 | 0.00 | 0.00 | 81 | 1016.5 |
| 20260509222001 | 54 | 58 | 4.3 | 7.0 | 0.00 | 0.00 | 0.00 | 81 | 1016.5 |
| 20260509221500 | 54 | 48 | 3.5 | 7.8 | 0.00 | 0.00 | 0.00 | 81 | 1016.6 |
| 20260509220459 | 54 | 53 | 4.3 | 8.7 | 0.00 | 0.00 | 0.00 | 80 | 1016.6 |
| 20260509220000 | 54 | 65 | 4.3 | 7.8 | 0.00 | 0.00 | 0.00 | 80 | 1016.6 |
| 20260509215500 | 54 | 46 | 4.3 | 9.6 | 0.00 | 0.00 | 0.00 | 79 | 1016.6 |
| 20260509214956 | 54 | 33 | 4.3 | 9.6 | 0.00 | 0.00 | 0.00 | 79 | 1016.5 |
| 20260509214457 | 54 | 45 | 3.5 | 7.8 | 0.00 | 0.00 | 0.00 | 78 | 1016.5 |
| 20260509213955 | 54 | 73 | 2.6 | 7.0 | 0.00 | 0.00 | 0.00 | 78 | 1016.5 |
| 20260509212956 | 54 | 63 | 3.5 | 7.0 | 0.00 | 0.00 | 0.00 | 77 | 1016.6 |
| 20260509212456 | 54 | 72 | 2.6 | 7.0 | 0.00 | 0.00 | 0.00 | 78 | 1016.5 |
| 20260509211951 | 54 | 20 | 2.6 | 7.0 | 0.00 | 0.00 | 0.00 | 78 | 1016.5 |
| 20260509211452 | 54 | 65 | 1.7 | 7.0 | 0.00 | 0.00 | 0.00 | 79 | 1016.5 |
| 20260509210953 | 54 | 72 | 1.7 | 7.0 | 0.00 | 0.00 | 0.00 | 79 | 1016.5 |
| 20260509210451 | 54 | 50 | 2.6 | 6.1 | 0.00 | 0.00 | 0.00 | 79 | 1016.4 |
| 20260509205952 | 54 | 51 | 3.5 | 6.1 | 0.00 | 0.00 | 0.00 | 80 | 1016.4 |
| 20260509205453 | 54 | 53 | 2.6 | 5.2 | 0.00 | 0.00 | 0.00 | 81 | 1016.3 |
| 20260509204948 | 54 | 50 | 2.6 | 6.1 | 0.00 | 0.00 | 0.00 | 82 | 1016.3 |
| 20260509203947 | 54 | 67 | 1.7 | 7.0 | 0.00 | 0.00 | 0.00 | 82 | 1016.4 |
| 20260509203446 | 54 | 83 | 2.6 | 7.0 | 0.00 | 0.00 | 0.00 | 83 | 1016.4 |
| 20260509202441 | 54 | 63 | 3.5 | 6.1 | 0.00 | 0.00 | 0.00 | 83 | 1016.4 |
| 20260509201939 | 54 | 79 | 3.5 | 6.1 | 0.00 | 0.00 | 0.00 | 83 | 1016.4 |
| 20260509200937 | 54 | 48 | 3.5 | 3.5 | 0.00 | 0.00 | 0.00 | 82 | 1016.3 |
| 20260509195730 | 55 | 64 | 3.5 | 7.8 | 0.00 | 0.00 | 0.00 | 83 | 1016.0 |
| 20260509195225 | 55 | 63 | 3.5 | 7.8 | 0.00 | 0.00 | 0.00 | 82 | 1016.0 |
| 20260509194722 | 55 | 58 | 3.5 | 7.0 | 0.00 | 0.00 | 0.00 | 81 | 1016.0 |
| 20260509194223 | 55 | 53 | 3.5 | 7.0 | 0.00 | 0.00 | 0.00 | 81 | 1016.0 |
| 20260509193722 | 55 | 34 | 3.5 | 7.8 | 0.00 | 0.00 | 0.00 | 80 | 1016.0 |
| 20260509193222 | 55 | 72 | 3.5 | 8.7 | 0.00 | 0.00 | 0.00 | 81 | 1016.0 |
| 20260509192721 | 55 | 64 | 3.5 | 8.7 | 0.00 | 0.00 | 0.00 | 80 | 1015.9 |
| 20260509191719 | 56 | 49 | 3.5 | 9.6 | 0.00 | 0.00 | 0.00 | 79 | 1015.9 |
| 20260509191219 | 56 | 63 | 3.5 | 7.0 | 0.00 | 0.00 | 0.00 | 78 | 1015.8 |
| 20260509190719 | 56 | 63 | 3.5 | 7.8 | 0.00 | 0.00 | 0.00 | 77 | 1015.8 |
| 20260509190220 | 57 | 61 | 3.5 | 7.8 | 0.00 | 0.00 | 0.00 | 76 | 1015.8 |
| 20260509185720 | 57 | 52 | 3.5 | 7.0 | 0.00 | 0.00 | 0.00 | 73 | 1015.8 |
| 20260509185219 | 57 | 68 | 4.3 | 7.8 | 0.00 | 0.00 | 0.00 | 69 | 1015.8 |
| 20260509184713 | 57 | 39 | 4.3 | 8.7 | 0.00 | 0.00 | 0.00 | 67 | 1015.8 |
| 20260509184213 | 57 | 48 | 3.5 | 8.7 | 0.00 | 0.00 | 0.00 | 67 | 1015.8 |
| 20260509183711 | 57 | 62 | 4.3 | 8.7 | 0.00 | 0.00 | 0.00 | 67 | 1015.8 |
| 20260509183211 | 57 | 26 | 4.3 | 8.7 | 0.00 | 0.00 | 0.00 | 65 | 1015.7 |
| 20260509182710 | 57 | 52 | 4.3 | 8.7 | 0.00 | 0.00 | 0.00 | 65 | 1015.7 |
| 20260509182208 | 58 | 68 | 4.3 | 8.7 | 0.00 | 0.00 | 0.00 | 65 | 1015.7 |
| 20260509181703 | 58 | 60 | 5.2 | 9.6 | 0.00 | 0.00 | 0.00 | 65 | 1015.7 |
| 20260509181159 | 58 | 69 | 6.1 | 10.4 | 0.00 | 0.00 | 0.00 | 65 | 1015.7 |
| 20260509180659 | 58 | 49 | 6.1 | 10.4 | 0.00 | 0.00 | 0.00 | 63 | 1015.6 |
| 20260509180200 | 58 | 70 | 5.2 | 10.4 | 0.00 | 0.00 | 0.00 | 63 | 1015.6 |
| 20260509175200 | 58 | 54 | 5.2 | 10.4 | 0.00 | 0.00 | 0.00 | 65 | 1015.5 |
| 20260509174654 | 58 | 101 | 6.1 | 11.3 | 0.00 | 0.00 | 0.00 | 64 | 1015.6 |
| 20260509174155 | 58 | 68 | 6.1 | 11.3 | 0.00 | 0.00 | 0.00 | 64 | 1015.5 |
| 20260509173655 | 58 | 60 | 6.1 | 12.2 | 0.00 | 0.00 | 0.00 | 64 | 1015.5 |
| 20260509173154 | 58 | 79 | 6.1 | 12.2 | 0.00 | 0.00 | 0.00 | 65 | 1015.5 |
| 20260509172654 | 59 | 47 | 6.1 | 12.2 | 0.00 | 0.00 | 0.00 | 64 | 1015.5 |
| 20260509172154 | 59 | 23 | 7.0 | 12.2 | 0.00 | 0.00 | 0.00 | 64 | 1015.5 |
| 20260509171651 | 59 | 69 | 6.1 | 12.2 | 0.00 | 0.00 | 0.00 | 64 | 1015.6 |
| 20260509171151 | 59 | 58 | 6.1 | 12.2 | 0.00 | 0.00 | 0.00 | 63 | 1015.6 |
| 20260509170651 | 59 | 76 | 6.1 | 10.4 | 0.00 | 0.00 | 0.00 | 64 | 1015.6 |
| 20260509170152 | 59 | 74 | 6.1 | 10.4 | 0.00 | 0.00 | 0.00 | 63 | 1015.7 |
| 20260509165652 | 59 | 51 | 5.2 | 10.4 | 0.00 | 0.00 | 0.00 | 65 | 1015.8 |
| 20260509165153 | 59 | 56 | 6.1 | 11.3 | 0.00 | 0.00 | 0.00 | 65 | 1015.8 |
| 20260509164146 | 59 | 45 | 7.0 | 13.9 | 0.00 | 0.00 | 0.00 | 68 | 1015.8 |
| 20260509163646 | 59 | 56 | 7.0 | 13.0 | 0.00 | 0.00 | 0.00 | 68 | 1015.8 |
| 20260509163146 | 59 | 27 | 7.0 | 13.9 | 0.00 | 0.00 | 0.00 | 69 | 1015.8 |
| 20260509162646 | 59 | 61 | 7.8 | 13.9 | 0.00 | 0.00 | 0.00 | 67 | 1015.8 |
| 20260509161645 | 60 | 67 | 6.1 | 11.3 | 0.00 | 0.00 | 0.00 | 64 | 1015.9 |
| 20260509161138 | 61 | 134 | 5.2 | 11.3 | 0.00 | 0.00 | 0.00 | 63 | 1015.9 |
| 20260509160640 | 61 | 62 | 4.3 | 11.3 | 0.00 | 0.00 | 0.00 | 63 | 1016.0 |
| 20260509155640 | 61 | 60 | 6.1 | 10.4 | 0.00 | 0.00 | 0.00 | 63 | 1016.0 |
| 20260509155140 | 60 | 56 | 6.1 | 11.3 | 0.00 | 0.00 | 0.00 | 63 | 1016.1 |
| 20260509154640 | 60 | 87 | 6.1 | 11.3 | 0.00 | 0.00 | 0.00 | 61 | 1016.2 |
| 20260509153634 | 61 | 44 | 6.1 | 12.2 | 0.00 | 0.00 | 0.00 | 62 | 1016.4 |
| 20260509153133 | 61 | 47 | 6.1 | 11.3 | 0.00 | 0.00 | 0.00 | 63 | 1016.4 |
| 20260509152634 | 61 | 82 | 5.2 | 11.3 | 0.00 | 0.00 | 0.00 | 65 | 1016.4 |
| 20260509152134 | 61 | 64 | 5.2 | 13.9 | 0.00 | 0.00 | 0.00 | 65 | 1016.4 |
| 20260509151634 | 61 | 34 | 6.1 | 13.9 | 0.00 | 0.00 | 0.00 | 65 | 1016.3 |
| 20260509151129 | 61 | 51 | 6.1 | 12.2 | 0.00 | 0.00 | 0.00 | 66 | 1016.2 |
| 20260509150129 | 61 | 88 | 6.1 | 12.2 | 0.00 | 0.00 | 0.00 | 67 | 1016.1 |
| 20260509145628 | 61 | 68 | 6.1 | 15.6 | 0.00 | 0.00 | 0.00 | 67 | 1016.2 |
| 20260509145129 | 61 | 119 | 6.1 | 15.6 | 0.00 | 0.00 | 0.00 | 66 | 1016.2 |
| 20260509144630 | 61 | 55 | 6.1 | 12.2 | 0.00 | 0.00 | 0.00 | 66 | 1016.1 |
| 20260509144129 | 60 | 23 | 6.1 | 13.0 | 0.00 | 0.00 | 0.00 | 66 | 1016.0 |
| 20260509143624 | 60 | 61 | 7.0 | 14.8 | 0.00 | 0.00 | 0.00 | 69 | 1016.0 |
| 20260509143122 | 60 | 71 | 7.8 | 14.8 | 0.00 | 0.00 | 0.00 | 69 | 1016.0 |
| 20260509142124 | 60 | 55 | 7.0 | 14.8 | 0.00 | 0.00 | 0.00 | 70 | 1016.0 |
| 20260509141624 | 60 | 83 | 7.0 | 13.0 | 0.00 | 0.00 | 0.00 | 72 | 1016.0 |
| 20260509141124 | 59 | 55 | 7.8 | 13.0 | 0.00 | 0.00 | 0.00 | 72 | 1016.0 |
| 20260509140618 | 59 | 49 | 7.8 | 13.0 | 0.00 | 0.00 | 0.00 | 71 | 1016.0 |
| 20260509140118 | 60 | 58 | 7.8 | 14.8 | 0.00 | 0.00 | 0.00 | 71 | 1016.0 |
| 20260509135618 | 60 | 62 | 7.8 | 14.8 | 0.00 | 0.00 | 0.00 | 71 | 1015.9 |
| 20260509135118 | 60 | 67 | 7.8 | 13.0 | 0.00 | 0.00 | 0.00 | 72 | 1016.0 |
| 20260509134618 | 60 | 63 | 7.0 | 11.3 | 0.00 | 0.00 | 0.00 | 71 | 1016.1 |
| 20260509134117 | 60 | 67 | 7.8 | 17.4 | 0.00 | 0.00 | 0.00 | 72 | 1016.0 |
| 20260509133612 | 60 | 56 | 7.8 | 17.4 | 0.00 | 0.00 | 0.00 | 71 | 1016.1 |
| 20260509132610 | 60 | 51 | 8.7 | 14.8 | 0.00 | 0.00 | 0.00 | 70 | 1016.2 |
| 20260509131112 | 61 | 55 | 7.8 | 13.9 | 0.00 | 0.00 | 0.00 | 66 | 1016.3 |
| 20260509130611 | 61 | 65 | 7.0 | 13.9 | 0.00 | 0.00 | 0.00 | 68 | 1016.4 |
| 20260509130107 | 61 | 51 | 7.0 | 11.3 | 0.00 | 0.00 | 0.00 | 67 | 1016.4 |
| 20260509125605 | 61 | 37 | 7.8 | 13.9 | 0.00 | 0.00 | 0.00 | 69 | 1016.4 |
| 20260509125105 | 60 | 53 | 8.7 | 13.9 | 0.00 | 0.00 | 0.00 | 69 | 1016.5 |
| 20260509124606 | 60 | 49 | 7.8 | 13.0 | 0.00 | 0.00 | 0.00 | 68 | 1016.5 |
| 20260509124106 | 61 | 47 | 7.8 | 13.0 | 0.00 | 0.00 | 0.00 | 69 | 1016.4 |
| 20260509123600 | 61 | 69 | 7.8 | 13.9 | 0.00 | 0.00 | 0.00 | 67 | 1016.5 |
| 20260509122101 | 61 | 25 | 7.0 | 13.0 | 0.00 | 0.00 | 0.00 | 70 | 1016.5 |
| 20260509121602 | 61 | 39 | 7.0 | 12.2 | 0.00 | 0.00 | 0.00 | 69 | 1016.6 |
| 20260509121102 | 62 | 70 | 6.1 | 11.3 | 0.00 | 0.00 | 0.00 | 67 | 1016.6 |
| 20260509120558 | 62 | 91 | 6.1 | 12.2 | 0.00 | 0.00 | 0.00 | 70 | 1016.6 |
| 20260509120101 | 62 | 68 | 6.1 | 12.2 | 0.00 | 0.00 | 0.00 | 68 | 1016.6 |
| 20260509115558 | 62 | 57 | 5.2 | 10.4 | 0.00 | 0.00 | 0.00 | 69 | 1016.6 |
| 20260509115059 | 62 | 107 | 5.2 | 12.2 | 0.00 | 0.00 | 0.00 | 69 | 1016.6 |
| 20260509114059 | 61 | 56 | 7.0 | 11.3 | 0.00 | 0.00 | 0.00 | 70 | 1016.7 |
| 20260509113555 | 61 | 4 | 7.0 | 11.3 | 0.00 | 0.00 | 0.00 | 73 | 1016.8 |
| 20260509113056 | 61 | 45 | 6.1 | 11.3 | 0.00 | 0.00 | 0.00 | 71 | 1016.9 |
| 20260509112555 | 61 | 41 | 6.1 | 11.3 | 0.00 | 0.00 | 0.00 | 70 | 1017.0 |
| 20260509112055 | 61 | 64 | 6.1 | 12.2 | 0.00 | 0.00 | 0.00 | 72 | 1017.0 |
| 20260509111556 | 61 | 62 | 6.1 | 12.2 | 0.00 | 0.00 | 0.00 | 71 | 1017.0 |
| 20260509111055 | 61 | 67 | 6.1 | 11.3 | 0.00 | 0.00 | 0.00 | 71 | 1017.1 |
| 20260509110551 | 61 | 58 | 6.1 | 11.3 | 0.00 | 0.00 | 0.00 | 73 | 1017.1 |
| 20260509110104 | 61 | 74 | 6.1 | 11.3 | 0.00 | 0.00 | 0.00 | 71 | 1017.1 |
| 20260509105552 | 61 | 59 | 6.1 | 12.2 | 0.00 | 0.00 | 0.00 | 71 | 1017.1 |
| 20260509105051 | 61 | 12 | 6.1 | 12.2 | 0.00 | 0.00 | 0.00 | 72 | 1017.1 |
| 20260509104551 | 61 | 67 | 6.1 | 13.0 | 0.00 | 0.00 | 0.00 | 73 | 1017.1 |
| 20260509104052 | 61 | 21 | 6.1 | 13.0 | 0.00 | 0.00 | 0.00 | 73 | 1017.1 |
| 20260509103550 | 61 | 74 | 6.1 | 11.3 | 0.00 | 0.00 | 0.00 | 72 | 1017.2 |
| 20260509103050 | 61 | 34 | 5.2 | 10.4 | 0.00 | 0.00 | 0.00 | 74 | 1017.2 |
| 20260509102051 | 61 | 76 | 6.1 | 11.3 | 0.00 | 0.00 | 0.00 | 72 | 1017.3 |
| 20260509101551 | 61 | 48 | 5.2 | 11.3 | 0.00 | 0.00 | 0.00 | 71 | 1017.2 |
| 20260509101050 | 61 | 66 | 6.1 | 13.0 | 0.00 | 0.00 | 0.00 | 72 | 1017.2 |
| 20260509100545 | 61 | 124 | 6.1 | 13.0 | 0.00 | 0.00 | 0.00 | 70 | 1017.2 |
| 20260509095545 | 60 | 69 | 6.1 | 13.0 | 0.00 | 0.00 | 0.00 | 71 | 1017.2 |
| 20260509095044 | 60 | 57 | 6.1 | 11.3 | 0.00 | 0.00 | 0.00 | 73 | 1017.2 |
| 20260509094544 | 60 | 51 | 6.1 | 11.3 | 0.00 | 0.00 | 0.00 | 70 | 1017.1 |